Regional Weather Roundup
Issued by NWS Charleston, SC

Current Version | Previous Version | Text Only | Print | Product List | Glossary Off
Versions: 1 2 3 4 5 6 7 8 9 10 11 12 13 14 15 16 17 18 19 20 21 22 23 24 25 26 27 28 29 30 31 32 33 34 35 36 37 38 39 40 41 42 43 44 45 46 47 48 49 50

000
ASUS42 KCHS 281926
RWRCHS

REGIONAL WEATHER ROUNDUP
NATIONAL WEATHER SERVICE CHARLESTON SC
300 PM EDT TUE JUL 28 2015

NOTE: "FAIR" INDICATES FEW OR NO CLOUDS BELOW 12,000 FEET WITH NO
SIGNIFICANT WEATHER AND/OR OBSTRUCTIONS TO VISIBILITY.

NOT ALL STATIONS ARE QUALITY CONTROLLED BY THE NATIONAL
WEATHER SERVICE. USE DATA WITH CAUTION...ESPECIALLY
DEWPOINT OBSERVATIONS.

SCZ027-030-031-034>040-042>050-282000-
...SOUTHEAST SOUTH CAROLINA...

CITY           SKY/WX    TMP DP  RH WIND       PRES   REMARKS
N CHARLESTON   MOSUNNY   90  71  53 E8        29.96F HX  96
WATERFRONT PRK   N/A     85  72  64 E12       29.95F HX  91
MOUNT PLEASANT LGT RAIN  90  70  51 E5        29.96F HX  95
JOHNS ISLAND   FAIR      88  70  55 E13       29.96F HX  92
PINOPOLIS      NOT AVBL
MONCKS CORNER  FAIR      93  66  40 E5        29.96F HX  96
SUMMERVILLE    FAIR      93  70  46 CALM      29.96F HX  99
BEAUFORT MCAS  MOSUNNY   91  75  59 SE6       29.96F HX 101
BEAUFORT ARPT  FAIR      90  73  58 E9        29.95F HX  98
HILTON HEAD IS MOSUNNY   88  77  70 NE8       29.98F HX 100
WALTERBORO     CLEAR     95  66  38 E10       29.95F HX  98
ALLENDALE      FAIR      93  72  49 E6        29.94F HX 100

...SOUTHERN MIDLANDS AND PEE DEE...

CITY           SKY/WX    TMP DP  RH WIND       PRES   REMARKS
GEORGETOWN     NOT AVBL
KINGSTREE      NOT AVBL
ORANGEBURG     MOSUNNY   95  68  41 E10       29.95F HX  99
BARNWELL       CLOUDY    91  72  52 SE6       29.95F HX  98
AIKEN          MOCLDY    91  64  40 N3        30.00S HX  93
MANNING        FAIR      91  63  38 SE8       29.94F HX  92
COLUMBIA       MOSUNNY   97  70  41 E10       29.94F HX 103
SUMTER         PTSUNNY   93  66  40 NE8       29.93F HX  96
FLORENCE       SUNNY     94  65  38 SE14      29.95F HX  96
MYRTLE BEACH   MOSUNNY   88  72  58 E14       30.00F HX  94
N MYRTLE BEACH SUNNY     87  72  60 SE10      29.98F HX  93

$$

GAZ063-065-086>088-099>101-113>116-118-119-134>141-150-282000-
...SOUTHEAST GEORGIA...

CITY           SKY/WX    TMP DP  RH WIND       PRES   REMARKS
SAVANNAH ARPT  PTSUNNY   92  71  50 NE9       29.96F HX  98
HUNTER AAF     MOSUNNY   90  77  66 E10G18    29.94F HX 103
FORT STEWART   MOSUNNY   92  71  50 E7        29.94F HX  98
STATESBORO     MOSUNNY   95  76  53 E3        29.94F HX 107
SYLVANIA       PTCLDY    95  75  52 E5        29.95F HX 106
CLAXTON        FAIR      93  73  52 E9        29.95F HX 102

...CSRA...CENTRAL AND FAR SOUTHEAST GEORGIA...

CITY           SKY/WX    TMP DP  RH WIND       PRES   REMARKS
THOMSON        MOSUNNY   98  72  42 E6        29.99F HX 107
AUGUSTA-BUSH   MOSUNNY   96  69  41 SE12      29.94F HX 102
AUGUSTA-DANIEL MOSUNNY   95  70  44 VRB6      29.96F HX 101
SWAINSBORO     FAIR      95  73  49 CALM      29.96F HX 105
VIDALIA        HVY RAIN  93  73  52 SE5       29.95F HX 102
EASTMAN        FAIR      97  71  42 NW3       29.97F HX 104
HAZLEHURST     CLOUDY    93  72  50 N6        29.95F HX 100
ALMA           MOSUNNY   93  72  50 E6        29.96F HX 101
WAYCROSS       MOSUNNY   94  78  59 N9        29.95F HX 110
JESUP          FAIR      95  73  49 NE7       29.95F HX 105
BAXLEY         FAIR      95  72  46 E8        29.95F HX 103
BRUNSWICK      PTSUNNY   88  77  70 E15       29.96F HX 100
SAINT SIMONS   PTSUNNY   87  76  69 NE12      29.95F HX  97

$$

SCZ027-028-034-036>038-045-046-048>050-GAZ119-141-282000-
...LAKE AND SUPPLEMENTAL COASTAL OBSERVATIONS...

STATION/POSITION TIME  TEMP    WIND        PRES    WAVE   SWELL
                       AIR SEA DIR/SP/G            HT/PER HT/PER/DIR
                 (UTC) (F)     (DEG/KT/KT) (MB)    (FT/S) (FT/S/D)
UPR LAKE MARION  NOT AVBL
WINYAH BAY       1800   83      60/  9     1015.0S
LAKE MURRAY      1800   89      CALM  /  1 1014.2F
ACE BASIN NERRS  1800   88     100/  3     1016.0S
FORT PULASKI     1900   83 86   60/ 13/ 14 1015.1F
SAPELO ISLAND    1900   89      60/ 11     1014.0F

$$

ANZ835-935-AMZ111-154-330-350-352-354-370-450-454-472-282000-
...C-MAN AND BUOY OBSERVATIONS...

STATION/POSITION TIME  TEMP    WIND        PRES    WAVE   SWELL
                       AIR SEA DIR/SP/G            HT/PER HT/PER/DIR
                 (UTC) (F)     (DEG/KT/KT) (MB)    (FT/S) (FT/S/D)
BUOY 41004       1850   84 85   60/ 12/ 14 1013.9F   3/ 7   2/ 7
BUOY 41008       1850   82 83   50/ 12/ 14 1014.5F   2/ 5   2/120/ 6
FOLLY BEACH CMAN 1900   85      70/ 10/ 12 1015.1F
CAPERS NEARSHORE NOT AVBL
FRIPP NEARSHORE  1800   84      60/ 14/ 16 1015.1


STATION/POSITION TIME  TEMP    WIND        PRES    WAVE   SWELL
                       AIR SEA DIR/SP/G            HT/PER HT/PER/DIR
                 (UTC) (F)     (DEG/KT/KT) (MB)    (FT/S) (FT/S/D)
5E ST. MARYS GA  1821      83                N/A     2/11
FRYING PAN BUOY  1850   84 84   70/ 10/ 12 1015.2F   5/ 7   3/170/ 7
BUOY 41025       NOT AVBL
CAPE LOOKOUT NC  1900   81      90/ 10/ 11 1015.5F
BUOY 41002       1850   81 82  230/ 23/ 27 1014.6F   7/ 7   2/ 20/10
BUOY 41010       1820   84 84  230/ 14/ 16 1015.6F
ST AUGUSTINE FL  1900   80 82   20/ 10/ 11 1014.3F


$$



USA.gov is the U.S. government's official web portal to all federal, state and local government web resources and services.